Location: Unspecified
(0.0000°N, 0.0000°E)
Time: 06:41:02
(UTC+00:00)

Vanguard 2 - Pass Details

Date: 16 September 2019
Orbit: 554 x 2937 km, 32.9° (Epoch: 14 October)

Event Time Altitude Azimuth Distance (km) Brightness Sun altitude
Rises 16:56:27 0° 233° (SW) 4,350 12.2 14.6°
Reaches altitude 10° 17:02:52 10° 199° (SSW) 4,034 11.5 13.0°
Maximum altitude 17:05:28 11° 185° (S) 4,200 11.4 12.3°
Drops below altitude 10° 17:08:19 10° 171° (S) 4,534 11.4 11.6°
Sets 17:17:52 0° 140° (SE) 6,241 11.8 9.2°
